sat.trackr.live / text

‹ back to catalog

YUNHAI-2 01D

NORAD 43912 · 2018-112D

PAYLOAD ACTIVE UNKNOWN

§ Identity

Operator
Country
PRC
Launch date
2018-12-29
Launch site
JSC
Launch vehicle
Mass (kg)
RCS (m²)

External: N2YO · Heavens-Above · Gunter

§ Orbital elements

Epoch: 2026-09-20T05:28:18.145056Z

Period
100.77 min
Inclination
50.0093°
Eccentricity
0.0015803
Mean motion
14.29062098 rev/d
Perigee alt
783.5 km
Apogee alt
806.2 km
Semi-major
7,173.0 km
B*
4.6236e-5
RAAN
243.9776°
Arg perigee
319.1461°
Mean anomaly
40.8269°
Rev number
40,117

§ Raw data

YUNHAI-2 01D1 43912U 18112D   26263.22798779 -.00000044  00000+0  46236-4 0  99952 43912  50.0093 243.9776 0015803 319.1461  40.8269 14.29062098401171

JSON: /api/v1/satellites/43912 · /tle

For live sub-satellite position, see the globe view (requires WebGL).

§ Visibility from observer

Set your observer location to see the next 7 days of passes ≥ 10°. The values pass through the URL so the page stays shareable.

No JS? Fill the form by hand. The geolocation button needs JavaScript.